sat.trackr.live / text

‹ back to catalog

STARLINK-1913

NORAD 47179 · 2020-088BK

PAYLOAD ACTIVE UNKNOWN

§ Identity

Operator
Country
US
Launch date
2020-11-25
Launch site
AFETR
Launch vehicle
Mass (kg)
RCS (m²)

Purposes: comms

External: N2YO · Heavens-Above · Gunter

§ Orbital elements

Epoch: 2026-09-20T03:56:33.495648Z

Period
93.30 min
Inclination
53.1521°
Eccentricity
0.0001430
Mean motion
15.43447582 rev/d
Perigee alt
435.0 km
Apogee alt
436.9 km
Semi-major
6,814.1 km
B*
8.9924e-4
RAAN
116.4261°
Arg perigee
108.5765°
Mean anomaly
251.5397°
Rev number
32,164

§ Raw data

STARLINK-19131 47179U 20088BK  26263.16427657  .00040661  00000+0  89924-3 0  99942 47179  53.1521 116.4261 0001430 108.5765 251.5397 15.43447582321649

JSON: /api/v1/satellites/47179 · /tle

For live sub-satellite position, see the globe view (requires WebGL).

§ Visibility from observer

Set your observer location to see the next 7 days of passes ≥ 10°. The values pass through the URL so the page stays shareable.

No JS? Fill the form by hand. The geolocation button needs JavaScript.